Regional Weather Roundup
Issued by NWS

Home | Current Version | Previous Version | Text Only | Print | Product List | Glossary Off
Versions: 1 2 3 4 5 6 7 8 9 10 11 12 13 14 15 16 17 18 19 20 21 22 23 24 25 26 27 28 29 30 31 32 33 34 35 36 37 38 39 40 41 42 43 44 45 46 47 48 49 50

000
ASUS43 KFSD 250002
RWRSD

WEATHER ROUNDUP FOR SOUTH DAKOTA
NATIONAL WEATHER SERVICE SIOUX FALLS SD
700 PM CDT SAT SEP 24 2016

NOTE: "FAIR" INDICATES FEW OR NO CLOUDS BELOW 12,000 FEET WITH NO
SIGNIFICANT WEATHER AND/OR OBSTRUCTIONS TO VISIBILITY.


SDZ001>005-009-010-012>017-250100-
NORTHWEST AND NORTH CENTRAL SOUTH DAKOTA

CITY           SKY/WX    TMP DP  RH WIND       PRES   REMARKS
BUFFALO          N/A     52  47  83 W32G41    29.74R
FAITH            N/A     54  44  69 W33G44    29.84R
MOBRIDGE       CLEAR     73  45  36 S16G24    29.72S
$$

SDZ012>016-024>037-041>051-057-063-072>074-250100-
SOUTHWEST AND SOUTH CENTRAL SOUTH DAKOTA

CITY           SKY/WX    TMP DP  RH WIND       PRES   REMARKS
RAPID CTY ARPT CLEAR     55  37  50 W18       29.94R
PIERRE         CLEAR     72  40  31 W16G28    29.82R
CUSTER         LGT RAIN  40  37  89 W13G25    30.00R FOG
ELLSWORTH AFB  PTCLDY    55  37  51 NW20G26   29.93R
PHILIP         MOCLDY    63  44  50 W18G24    29.89R
PINE RIDGE     PTCLDY    57  42  57 W14G28    30.02R
WINNER         FAIR      76  40  27 SW9       29.87R
$$

SDZ004>011-016>023-039-040-250100-
NORTHEAST SOUTH DAKOTA

CITY           SKY/WX    TMP DP  RH WIND       PRES   REMARKS
ABERDEEN       CLEAR     75  55  49 SW10      29.78R
WATERTOWN      PTCLDY    71  68  90 S12       29.84S
SISSETON         N/A     71  68  90 S10       29.80F
$$

SDZ017-020-022-023-036>040-048>070-250100-
SOUTHEAST SOUTH DAKOTA

CITY           SKY/WX    TMP DP  RH WIND       PRES   REMARKS
SIOUX FALLS    CLOUDY    73  67  81 S10G20    29.88R
HURON          CLEAR     75  53  46 SW13      29.82R
CHAMBERLAIN    CLEAR     75  45  34 SW8       29.85R
MITCHELL       PTCLDY    76  61  59 S5        29.84R
YANKTON        CLOUDY    75  66  73 S8        29.85R
$$

ABBREVIATIONS USED IN REMARKS
   TC - TEMPERATURE IN CELSIUS
  WCI - WIND CHILL INDEX
   HX - HEAT INDEX
  VSB - VISIBILITY





USA.gov is the U.S. government's official web portal to all federal, state and local government web resources and services.